Weather in Kamennomostsky

Russia / Republic of Adygea     44°17′45″N   40°11′00″E
temp.,
°C
wind,
m/s
gust,
m/s
humid.,
%
clouds,
%
prec.,
mm/h
press.,
hPa
HPBL,
m
27 september, mon
mon2700:00+9ssw367873 0.0 1018120
03:00+9ssw247891 0.0 101799
06:00+9sw238096 0.0 101778
09:00+10nw1389100 0.3 1017167
12:00+11wnw1388100 0.3 1017219
15:00+14nw248058 0.7 1016638
18:00+10nnw1295100 0.7 101772
21:00+10nw009196 0.7 101711
28 september, tue
tue2800:00+8ssw009451 0.0 101711
03:00+6ssw119616 0.0 101810
06:00+6sse119623 0.0 101810
09:00+10ne128670 0.0 1018430
12:00+11nne2277100 0.1 1018644
15:00+11ene2373100 0.1 1019725
18:00+9e1281100 0.0 102090
21:00+9ese228340 0.0 102087
29 september, wed
wed2900:00+6sse229419 0.0 102124
03:00+6sse2194100 0.0 102126
06:00+7se1193100 0.0 102128
09:00+11ene247783 0.0 1021674
12:00+12ene247499 0.1 1021917
15:00+11ene3580100 0.4 1021649
18:00+9e2484100 0.1 1022271
21:00+8ene2589100 0.1 1024481
30 september, thu
thu3000:00+7ene2492100 0.0 1024395
03:00+6ene2492100 0.1 1025257
06:00+6e249287 0.0 1026272
09:00+8e257751 0.0 1025511
12:00+11e456241 0.0 10241065
15:00+11e456264 0.0 10241048
18:00+6e35867 0.0 1026203
21:00+3ese23960 0.0 102785
1 october, fri
fri100:00+2ese22972 0.0 102741
03:00+2ese22975 0.0 102739
06:00+1ese22975 0.0 102738
09:00+8ene23720 0.0 1026361
12:00+13ene33550 0.0 1024910
15:00+13ene56490 0.0 10241107
18:00+7e35760 0.0 1026188
21:00+3ese23920 0.0 102785